Location: Kailua
(21.4020°N, 157.7390°W)
Time: 07:57:10
(UTC-10:00)

Daily predictions for brighter satellites

Satellite Brightness Start Highest point End
(mag) Time Altitude Azimuth Time Altitude Azimuth Time Altitude Azimuth
EPKM 4.3 19:26:02 10° W 19:30:09 55° SSW 19:47:43 10° ESE
SJ-6B 4.4 19:34:00 10° SSW 19:37:29 36° W 19:41:01 10° NNW
ARIANE DEB (SYLDA) 4.3 19:36:00 10° SSW 19:38:09 14° S 19:40:58 10° SE
Delta 7925 Rocket 4.5 19:35:18 10° SSW 19:39:14 23° SSE 19:42:53 10° ESE
Cosmos 1892 Rocket 3.7 19:35:52 10° S 19:40:17 83° W 19:44:46 10° N
Cosmos 1331 Rocket 4.3 19:36:11 10° N 19:41:09 47° ENE 19:46:05 10° SSE
Mugunghwa Rocket 3.9 19:35:04 10° WSW 19:41:26 80° SSE 19:47:46 10° ENE
Ariane H10 4.4 19:44:24 10° SSW 19:47:24 18° SSE 19:53:10 11° ESE
ATLAS 3B R/B 3.1 19:41:13 10° S 19:48:33 51° ESE 19:55:55 10° NE
FREGAT/IRIS 4.4 19:45:49 10° SSW 19:48:43 34° W 19:51:37 10° NNW
CZ-4B DEB 2.8 19:46:30 10° SSE 19:49:49 81° E 19:53:09 10° N
Fermi 4.4 19:46:23 10° WNW 19:50:24 50° N 19:54:24 10° E
Cosmos 1666 4.1 19:48:24 10° NNE 19:51:29 22° E 19:53:47 14° SE
Cosmos 1500 4.2 19:49:32 10° NNW 19:53:18 50° W 19:57:04 10° S
Delta 168 3.3 19:51:03 10° WNW 19:53:59 40° N 19:57:12 10° ENE
Cosmos 2278 Rocket 3.4 19:52:12 10° NW 19:57:30 42° WSW 20:02:48 10° S
Resurs 1-3 4.0 19:53:41 10° S 19:58:02 66° W 20:02:23 10° NNW
Meteor 2-17 Rocket 4.5 19:52:31 10° N 19:58:41 87° E 20:04:49 10° S
ERS-1 Rocket 4.5 19:57:17 13° ESE 19:59:49 19° ENE 20:03:17 10° NNE
Resurs 01 Rocket 2.9 19:55:47 10° S 19:59:59 42° W 20:04:11 10° NNW
GPS 2-15 Rocket1 3.6 20:01:01 10° W 20:05:35 47° SSW 20:08:41 19° SE
COSMOS 2455 3.4 19:59:43 10° SSW 20:05:37 61° WNW 20:11:33 10° NNE
CZ-2D R/B 3.4 20:03:04 13° SSE 20:06:20 53° ENE 20:10:09 10° N
Cosmos 1726 Rocket 3.7 20:04:48 10° N 20:09:11 76° W 20:13:32 10° S
USA 186 1.7 20:12:47 31° SE 20:13:44 45° ENE 20:16:21 10° N
Cosmos 1743 3.9 20:14:05 10° NNW 20:17:42 42° W 20:21:18 10° SSW
Cosmos 407 Rocket 4.1 20:15:41 12° SSE 20:19:57 35° E 20:24:40 10° NE
Cosmos 1602 Rocket 3.6 20:16:59 10° S 20:21:28 82° W 20:25:55 10° N
ATLAS CENTAUR Rocket 3.9 20:17:14 10° W 20:22:32 66° N 20:51:45 10° E
ATLAS CENTAUR Rocket 3.9 20:17:14 10° W 20:22:33 66° N 20:51:45 10° E
Milstar 3 Cent rocket 2.6 20:17:28 10° WNW 20:27:05 86° SSW 20:30:15 28° ESE
Lacrosse 4 Rocket 1.4 20:27:22 10° SSW 20:31:23 75° WNW 20:35:25 10° NNE
FENGYUN 3A 3.6 20:28:02 17° SSE 20:32:16 88° ENE 20:37:40 10° NNW
ALOS 2.4 20:33:05 18° S 20:36:33 73° WSW 20:41:13 10° NNW
Cosmos 2058 Rocket 4.1 20:32:38 10° NNW 20:36:45 43° W 20:40:52 10° SSW
USA 238 DEB 4.0 20:30:07 10° S 20:36:46 44° ESE 20:43:25 10° NE
USA 238 4.0 20:30:14 10° S 20:36:52 43° ESE 20:43:29 10° NE
Cosmos 1891 Rocket 4.3 20:35:44 10° N 20:41:46 86° E 20:45:52 22° S
Cosmos 1066 Rocket 4.4 20:39:36 31° SSE 20:41:56 49° E 20:47:28 10° NNE
Cosmos 1812 Rocket 3.8 20:39:10 10° N 20:43:27 48° E 20:43:52 47° ESE
H-2A R/B 2.3 20:44:48 46° E 20:45:09 47° ENE 20:49:18 10° N
H-2A R/B 3.8 20:48:57 23° SSW 20:50:59 43° W 20:54:45 10° NNW
ATLAS 3B CENTAUR R/B 4.4 20:48:03 10° SW 20:51:05 15° S 20:52:02 15° S
Abrixas rocket 3.1 20:47:51 10° WNW 20:51:05 42° SW 20:51:05 42° SW
Delta 198 3.2 20:47:09 10° W 20:51:10 69° N 20:51:39 60° NE
YAOGAN 11 4.4 20:51:46 34° S 20:53:30 62° WSW 20:57:47 10° NNW
UNK 4.4 20:48:21 10° NNE 20:53:57 56° ESE 20:55:52 39° SSE
Cosmos 2228 4.2 20:50:36 10° NNW 20:54:44 41° W 20:57:27 19° SSW
GPS 2-18 Rocket1 3.8 20:51:41 10° WSW 20:54:25 42° SW 20:54:25 42° SW
GPS 2-17 Rocket1 2.8 20:51:46 10° W 20:56:09 74° S 20:56:18 73° SSE
Cosmos 1943 4.3 20:52:28 10° SW 20:57:49 44° WNW 21:03:13 10° N
SEDSat Delta rocket 3.4 20:52:56 10° SW 20:58:00 65° SSE 20:59:10 52° E
Cosmos 1939 Rocket 3.3 21:00:34 51° NE 21:00:34 51° NE 21:04:06 10° N
Cosmos 1992 Rocket 4.4 20:55:56 10° N 21:00:49 43° ENE 21:00:49 43° ENE
Atlas Centaur 2 3.7 20:55:50 10° WNW 21:02:23 43° N 21:08:05 18° ENE
Cosmos 1346 Rocket 3.7 21:06:12 39° NNE 21:06:12 39° NNE 21:08:46 10° N
OAO 3 Rocket 4.1 21:00:21 10° SW 21:03:12 34° SSW 21:03:12 34° SSW
Cosmos 1461 4.1 21:06:09 10° NW 21:09:48 32° WSW 21:10:09 32° WSW
Cosmos 1953 Rocket 3.9 21:14:33 56° NNE 21:14:33 56° NNE 21:18:04 10° N
SPOT 5 3.5 21:18:46 39° NNE 21:18:46 39° NNE 21:21:43 10° N
CZ-4B R/B 3.4 21:14:03 10° NNE 21:19:03 77° ENE 21:19:03 77° ENE
USA 81 4.3 21:14:48 10° N 21:19:18 56° NE 21:19:18 56° NE
Meteor 2-12 Rocket 4.4 21:18:47 10° N 21:24:50 78° W 21:25:56 60° SSW
Mugunghwa Rocket 4.4 21:31:05 10° W 21:37:17 58° N 21:38:54 45° NE
ERS-1 Rocket 4.4 21:37:16 27° WSW 21:38:18 30° W 21:42:39 10° NW
Meteor 1-21 4.3 21:38:50 78° NW 21:38:50 78° NW 21:44:22 10° N
Cosmos 2142 Rocket 4.4 21:34:17 10° N 21:40:12 82° NNE 21:40:12 82° NNE
FALCON 9 R/B 4.3 21:07:57 10° SW 21:41:01 51° SSE 21:42:32 49° SE
Cosmos 1607 4.0 21:44:38 70° WSW 21:45:10 75° WNW 21:51:25 10° NNE
Cosmos 1634 Rocket 4.0 21:41:14 10° N 21:47:14 76° WNW 21:47:14 76° WNW
Cosmos 2369 Rocket 2.6 21:45:34 10° NNW 21:50:00 57° NNW 21:50:00 57° NNW
Envisat 4.2 21:57:54 36° WNW 21:57:54 36° WNW 22:01:51 10° NNW
Cosmos 1943 Rocket 4.0 22:34:07 10° NNW 22:36:29 26° NNW 22:36:29 26° NNW
Atlas Centaur 2 3.6 22:45:06 10° WNW 22:50:42 50° NW 22:50:42 50° NW
